#timestamp,LO_Frequency,Hit,StdDev 
1688432415.7,286046998.2,N
1688432435.5,286047000.8,N
1688432455.4,286047001.0,N
1688432475.2,286047001.0,N
1688432495.0,286047000.6,N
1688432495.9,286047000.6,N
1688432515.8,286046998.4,N
1688432535.6,286046999.8,N
1688432555.4,286047000.5,N
1688432575.3,286047000.7,N
1688432595.1,286046998.9,N
1688432615.9,286046996.8,N
1688432635.7,286046996.6,N
1688432655.5,286046996.9,N
1688432675.4,286046999.3,N
1688432695.2,286046998.8,N
1688432715.0,286046998.9,N
1688432716.0,286046998.9,N
1688432735.8,286046998.3,N
1688432755.6,286046998.7,N
1688432775.5,286046999.4,N
1688432795.3,286046997.0,N
1688432815.1,286046999.1,N
1688432835.9,286046997.1,N
1688432855.7,286046997.3,N
1688432875.6,286046999.1,N
1688432895.4,286046996.5,N
1688432915.2,286046999.5,N
1688432935.1,286046999.5,N
1688432936.0,286046999.5,N
1688432955.8,286046998.4,N
1688432975.7,286046998.8,N
1688432995.5,286046999.4,N
1688433015.3,286046999.4,N
1688433035.2,286046998.3,N
1688433055.0,286046999.2,N
1688433055.9,286046999.2,N
1688433075.8,286046996.9,N
1688433095.6,286046999.6,N
1688433115.4,286046996.7,Y
1688433135.3,286046998.2,P
1688433155.1,286046998.2,P
1688433175.8,286046998.1,P
1688433195.7,286046999.5,Y
1688433215.5,286046999.7,P
1688433235.4,286046999.8,N
1688433255.2,286047000.3,N
1688433275.0,286047000.3,N
1688433275.9,286047000.3,N
1688433295.8,286047000.0,N
1688433315.6,286047000.6,N
1688433335.5,286047002.8,Y
1688433355.3,286047000.1,P
1688433375.1,286047000.0,N
1688433395.9,286047002.3,P
1688433415.7,286047001.5,N
1688433435.6,286047002.2,N
1688433455.4,286047002.6,N
1688433475.2,286047001.7,N
1688433495.1,286047001.3,N
1688433496.0,286047001.3,N
1688433515.8,286047002.0,N
1688433535.6,286047002.6,N
1688433555.5,286046999.7,N
1688433575.3,286047001.9,N
1688433595.2,286047001.5,N
1688433615.9,286047002.6,N
1688433635.7,286046999.9,N
1688433655.6,286047002.4,N
1688433675.4,286047000.0,N
1688433695.2,286047000.2,N
1688433715.1,286047001.0,N
1688433716.0,286047001.0,N
1688433735.8,286046998.7,N
1688433755.7,286046998.9,N
1688433775.5,286046999.4,N
1688433795.3,286046997.0,N
1688433815.2,286046999.6,N
1688433835.0,286046998.8,N
1688433835.9,286046998.8,N
1688433855.8,286046999.6,N
1688433905.6,286046999.5,E
1688433915.5,286046996.7,N
1688433935.4,286046999.6,P
1688433955.2,286046997.0,N
1688433975.1,286046999.0,N
1688433976.0,286046999.0,N
1688433995.8,286046999.1,N
1688434015.6,286046997.1,N
1688434035.5,286046996.8,N
1688434055.3,286046997.9,N
1688434105.2,286046997.2,E
1688434115.1,286046998.1,N
1688434116.0,286046998.1,P
1688434135.8,286047000.2,P
1688434155.7,286047000.9,N
1688434175.5,286047000.6,N
1688434195.3,286046998.5,N
1688434215.2,286047001.0,N
1688434235.0,286047000.3,N
1688434235.9,286047000.3,N
1688434255.8,286046999.7,N
1688434275.6,286047002.8,N
1688434295.4,286047002.2,N
1688434315.3,286047002.7,N
1688434335.1,286046999.8,N
1688434355.8,286047002.1,N
1688434375.7,286047001.9,N
1688434395.5,286047001.5,N
1688434415.4,286047000.6,N
1688434435.2,286047002.7,N
1688434455.0,286047002.6,N
1688434455.9,286047002.6,N
1688434475.8,286047002.0,N
1688434495.6,286047004.3,N
1688434515.5,286047004.3,N
1688434535.3,286047003.9,N
1688434555.1,286047003.6,N
1688434575.9,286047005.5,Y
1688434595.7,286047001.5,P
1688434615.5,286047002.2,P
1688434635.4,286047001.5,P
1688434655.2,286047002.0,Y
1688434675.1,286047000.9,P
1688434676.0,286047000.9,N
1688434695.8,286046998.3,P
1688434715.6,286047001.1,N
1688434735.5,286047000.4,N
1688434755.3,286046999.7,N
1688434775.1,286047000.2,N
1688434795.9,286046999.8,N
1688434815.7,286047002.3,N
1688434835.6,286047002.6,N
1688434855.4,286047001.9,N
1688434875.2,286047001.7,N
1688434895.1,286047001.8,N
1688434896.0,286047001.8,N
1688434915.8,286047002.0,N
1688434935.6,286047001.5,N
1688434955.5,286047001.5,N
1688434975.3,286047004.3,Y
1688434995.2,286047002.3,P
1688435015.9,286046999.7,N
1688435035.7,286047000.2,N
1688435055.6,286047002.4,N
1688435075.4,286047002.4,N
1688435095.2,286047002.6,N
1688435115.1,286047002.5,N
1688435116.0,286047002.5,N
1688435135.8,286047002.1,N
1688435155.7,286047001.3,N
1688435175.5,286047001.3,N
1688435195.3,286047003.9,Y
1688435215.2,286046999.8,P
1688435235.0,286046999.9,N
1688435235.9,286046999.9,N
1688435255.8,286046999.7,N
1688435275.6,286047000.2,N
1688435295.4,286047002.7,Y
1688435315.3,286046999.7,P
1688435335.1,286047000.3,N
1688435355.8,286047002.5,P
1688435375.7,286046999.8,N
1688435395.5,286047000.2,N
1688435415.4,286047002.6,N
1688435435.2,286047002.8,N
1688435455.0,286046999.9,N
1688435455.9,286046999.9,N
1688435475.8,286047002.2,N
1688435495.6,286047000.0,N
1688435515.4,286047002.4,N
1688435535.3,286047002.8,N
1688435555.1,286047000.1,N
1688435575.9,286047000.3,N
1688435595.7,286047000.2,N
1688435615.5,286046999.8,N
1688435635.4,286047002.5,N
1688435655.2,286047002.3,N
1688435675.0,286047000.4,N
1688435675.9,286047000.4,N
1688435695.8,286047000.4,N
1688435715.6,286047002.0,N
1688435735.8,286047002.6,N
1688435755.7,286047001.6,N
1688435775.5,286047004.3,Y
1688435795.4,286047000.1,P
1688435815.2,286046999.7,N
1688435835.0,286046999.7,N
1688435835.9,286046999.7,N
1688435855.8,286046999.9,N
1688435875.6,286046999.8,N
1688435895.5,286047002.7,Y
1688435915.3,286046999.7,P
1688435935.1,286047002.3,P
1688435955.9,286047002.2,N
1688435975.7,286047002.7,N
1688435995.5,286047002.6,N
